Location: Brighton Point
(40.6144°N, 111.7933°W)
Time: 13:23:04
(UTC+00:00)

Hubble Space Telescope - Pass Details

Date: 07 March 2021
Orbit: 535 x 539 km, 28.5° (Epoch: 10 April)

Event Time Altitude Azimuth Distance (km) Brightness Sun altitude
Rises 02:30:07 0° 225° (SW) 2,661 4.9 -13.2°
Reaches altitude 10° 02:33:33 10° 195° (SSW) 1,773 3.5 -13.9°
Maximum altitude 02:35:17 12° 170° (S) 1,625 3.1 -14.2°
Enters shadow 02:36:41 11° 149° (SSE) 1,724 3.0 -14.5°
